Hoquiam, WA
on Friday, February 22, 2013

Friday
Previous Day Next Day
Daily Summary
 ActualAverageRecord
Temperature
Mean Temperature °F 44°F  
Max Temperature 48°F 50°F 62°F (1973)
Min Temperature 37°F 38°F 9°F (1974)
Degree Days
Heating Degree Days 22 21  
Month to date heating degree days 472  
Cooling Degree Days 0 0  
Month to date cooling degree days 0  
Year to date cooling degree days 0  
Moisture
Dew Point 41°F   
Average Humidity 87    
Maximum Humidity 100    
Minimum Humidity 71    
Precipitation
Precipitation 1.56 in 0.24 in 1.84 in (1999)
Month to date precipitation 5.75  
Year to date precipitation 16.08  
Wind
Wind Speed 16 mph   
Max Wind Speed 36 mph   
Max Gust Speed 41 mph   
Visibility 6 miles   
Events Rain   

Key: T is trace of precipitation, MM is missing value
Source: NWS Daily Summary
Time(PST)TemperatureDew PointHumidity Pressure Visibility Wind DirectionWind SpeedGust SpeedPrecipitationEvents Conditions
12:53 AM 44.1°F 41.0°F 89% 30.09 in 8.0 miles SSE 9.2 mph - 0.00 in Rain Light Rain
1:24 AM 44.6°F 41.0°F 87% 30.07 in 8.0 miles South 5.8 mph - 0.01 in Rain Light Rain
1:37 AM 44.6°F 39.2°F 81% 30.07 in 8.0 miles SSE 4.6 mph - 0.02 in Rain Light Rain
1:53 AM 44.1°F 41.0°F 89% 30.08 in 6.0 miles SSE 4.6 mph - 0.03 in Rain Light Rain
2:24 AM 44.6°F 42.8°F 93% 30.05 in 7.0 miles South 8.1 mph - 0.01 in Rain Light Rain
2:45 AM 44.6°F 42.8°F 93% 30.05 in 7.0 miles South 12.7 mph - 0.01 in   Overcast
2:53 AM 46.0°F 43.0°F 89% 30.05 in 6.0 miles South 11.5 mph - 0.01 in Rain Light Rain
3:53 AM 46.0°F 42.1°F 86% 30.00 in 8.0 miles South 15.0 mph - 0.01 in   Overcast
4:16 AM 46.4°F 42.8°F 87% 29.98 in 5.0 miles South 15.0 mph 24.2 mph 0.00 in   Overcast
4:27 AM 46.4°F 42.8°F 87% 29.97 in 5.0 miles South 16.1 mph - 0.00 in Rain Light Rain
4:53 AM 45.0°F 43.0°F 93% 29.97 in 3.0 miles South 16.1 mph - 0.04 in Rain Light Rain
5:53 AM 46.0°F 44.1°F 93% 29.93 in 6.0 miles South 15.0 mph - 0.07 in Rain Light Rain
6:53 AM 46.9°F 44.1°F 90% 29.91 in 4.0 miles South 21.9 mph 28.8 mph 0.11 in Rain Rain
7:39 AM 46.4°F 44.6°F 93% 29.87 in 4.0 miles South 26.5 mph 36.8 mph 0.15 in Rain Light Rain
7:53 AM 46.9°F 44.1°F 90% 29.87 in 3.0 miles South 28.8 mph 41.4 mph 0.21 in Rain Rain
8:53 AM 46.0°F 43.0°F 89% 29.87 in 3.0 miles South 26.5 mph 36.8 mph 0.25 in Rain Rain
9:06 AM 46.4°F 44.6°F 93% 29.84 in 2.5 miles South 31.1 mph 40.3 mph 0.03 in   Overcast
9:30 AM 46.4°F 44.6°F 93% 29.82 in 3.0 miles South 35.7 mph 41.4 mph 0.12 in Rain Light Rain
9:45 AM 46.4°F 44.6°F 93% 29.81 in 2.5 miles South 26.5 mph 40.3 mph 0.17 in Rain Rain
9:53 AM 46.9°F 45.0°F 93% 29.82 in 2.5 miles South 21.9 mph 35.7 mph 0.19 in Rain Light Rain
10:15 AM 46.4°F 44.6°F 93% 29.80 in 2.0 miles South 29.9 mph 38.0 mph 0.09 in Rain Rain
10:28 AM 46.4°F 44.6°F 93% 29.80 in 2.0 miles South 27.6 mph 38.0 mph 0.15 in Rain Rain
10:53 AM 48.0°F 46.0°F 93% 29.80 in 2.0 miles South 23.0 mph 41.4 mph 0.25 in Rain Rain
11:19 AM 48.2°F 46.4°F 93% 29.78 in 2.5 miles SSW 23.0 mph 33.4 mph 0.10 in Rain Rain
11:36 AM 48.2°F 46.4°F 93% 29.78 in 2.0 miles South 24.2 mph 36.8 mph 0.18 in Rain Rain
11:46 AM 48.2°F 46.4°F 93% 29.78 in 2.5 miles SSW 26.5 mph 34.5 mph 0.20 in Rain Light Rain
11:53 AM 48.0°F 46.0°F 93% 29.79 in 3.0 miles SW 24.2 mph 33.4 mph 0.21 in Rain Light Rain
12:06 PM 46.4°F 46.4°F 100% 29.79 in 2.0 miles SW 25.3 mph 29.9 mph 0.04 in Rain Rain
12:17 PM 46.4°F 44.6°F 93% 29.79 in 2.5 miles West 20.7 mph 31.1 mph 0.07 in Rain Light Rain
12:26 PM 46.4°F 44.6°F 93% 29.79 in 5.0 miles West 19.6 mph - 0.07 in Rain Light Rain
12:29 PM 46.4°F 44.6°F 93% 29.79 in 6.0 miles West 16.1 mph 24.2 mph 0.07 in Rain Light Rain
12:53 PM 46.9°F 45.0°F 93% 29.80 in 8.0 miles WSW 9.2 mph - 0.07 in   Overcast
1:21 PM 48.2°F 46.4°F 93% 29.80 in 8.0 miles SW 19.6 mph 26.5 mph N/A   Overcast
1:53 PM 48.9°F 45.0°F 86% 29.81 in 7.0 miles SW 19.6 mph - N/A   Overcast
2:53 PM 46.9°F 39.9°F 77% 29.82 in 10.0 miles WSW 13.8 mph 21.9 mph 0.01 in   Mostly Cloudy
3:07 PM 48.2°F 39.2°F 71% 29.81 in 8.0 miles WSW 13.8 mph 20.7 mph N/A   Mostly Cloudy
3:44 PM 44.6°F 37.4°F 76% 29.83 in 9.0 miles West 19.6 mph 34.5 mph 0.00 in   Overcast
3:53 PM 45.0°F 37.9°F 76% 29.84 in 5.0 miles WSW 18.4 mph 31.1 mph 0.00 in Rain Light Rain
4:10 PM 44.6°F 37.4°F 76% 29.84 in 9.0 miles West 21.9 mph 29.9 mph 0.01 in   Mostly Cloudy
4:53 PM 44.1°F 37.0°F 76% 29.86 in 10.0 miles West 17.3 mph - 0.01 in   Overcast
5:27 PM 42.8°F 37.4°F 81% 29.85 in 5.0 miles West 12.7 mph 21.9 mph 0.02 in Rain Light Rain
5:36 PM 42.8°F 37.4°F 81% 29.85 in 9.0 miles West 19.6 mph 29.9 mph 0.02 in Rain Light Rain
5:53 PM 44.1°F 36.0°F 73% 29.86 in 10.0 miles WSW 21.9 mph 27.6 mph 0.02 in   Overcast
6:09 PM 39.2°F 33.8°F 81% 29.86 in 10.0 miles West 13.8 mph 21.9 mph 0.01 in   Overcast
6:30 PM 37.4°F 33.8°F 87% 29.87 in 10.0 miles West 9.2 mph - 0.06 in   Overcast
6:53 PM 41.0°F 36.0°F 82% 29.88 in 10.0 miles West 18.4 mph 23.0 mph 0.06 in   Overcast
7:53 PM 43.0°F 35.1°F 74% 29.90 in 10.0 miles WSW 13.8 mph 23.0 mph N/A   Overcast
8:53 PM 43.0°F 34.0°F 71% 29.92 in 10.0 miles WSW 20.7 mph 28.8 mph N/A   Mostly Cloudy
9:53 PM 39.9°F 33.1°F 77% 29.95 in 10.0 miles West 11.5 mph 29.9 mph 0.00 in Rain Light Rain
10:53 PM 42.1°F 35.1°F 76% 29.96 in 10.0 miles West 23.0 mph 32.2 mph 0.01 in   Overcast
11:51 PM 42.8°F 37.4°F 81% 29.97 in 10.0 miles SW 19.6 mph 25.3 mph 0.00 in   Overcast
11:53 PM 42.1°F 37.0°F 82% 29.98 in 10.0 miles WSW 17.3 mph 25.3 mph 0.00 in   Overcast
Moon Phase
Feb. 22 Feb. 25 Mar. 04 Mar. 11 Mar. 19
Sunrise:07:07 AM (PST) Moon Rise:03:01 PM (PST)2/22
Sunset:05:51 PM (PST) Moon Set:05:04 AM (PST)2/22

Copyright © 2014 The Weather Underground, Inc.